Regional Weather Roundup
Issued by NWS

Home | Current Version | Previous Version | Text Only | Print | Product List | Glossary Off
Versions: 1 2 3 4 5 6 7 8 9 10 11 12 13 14 15 16 17 18 19 20 21 22 23 24 25 26 27 28 29 30 31 32 33 34 35 36 37 38 39 40 41 42 43 44 45 46 47 48 49 50

000
ASUS43 KLMK 201002
RWRKY
KENTUCKY REGIONAL WEATHER ROUNDUP
NATIONAL WEATHER SERVICE LOUISVILLE KY
600 AM EDT THU JUL 20 2017

NOTE "FAIR" INDICATES FEW OR NO CLOUDS BELOW 12,000 FEET
WITH NO SIGNIFICANT WEATHER AND/OR OBSTRUCTIONS TO VISIBILITY.

KYZ001>023-026-027-061>063-070>075-201100-
WESTERN AND SOUTH CENTRAL KENTUCKY

CITY           SKY/WX    TMP DP  RH WIND       PRES   REMARKS
PADUCAH        CLEAR     76  71  85 SW5       30.06S
HENDERSON      CLEAR     73  71  93 SW5       30.05F
OWENSBORO      CLEAR     74  72  93 S6        30.05F
HOPKINSVILLE   CLEAR     76  74  94 SW3       30.08S
BOWLING GREEN  CLEAR     74  73  97 CALM      30.09S
GLASGOW        NOT AVBL
$$

KYZ024-025-028>034-038-045-046-053-201100-
NORTH CENTRAL KENTUCKY

CITY           SKY/WX    TMP DP  RH WIND       PRES   REMARKS
LOUISVILLE/SDF PTCLDY    76  70  82 CALM      30.05F
LOUISVILLE/LOU CLEAR     75  72  90 CALM      30.06F
FORT KNOX      CLEAR     71  71 100 S3        30.05F
$$

KYZ035>037-039>044-047>052-055>060-089>105-201100-
NORTHEAST KENTUCKY

CITY           SKY/WX    TMP DP  RH WIND       PRES   REMARKS
LEXINGTON      MOCLDY    69  65  86 CALM      30.09F
COVINGTON      PTCLDY    67  67 100 S6        30.06F
FRANKFORT      CLEAR     70  66  87 CALM      30.07S
$$

KYZ054-064>069-076>088-106>120-201100-
SOUTHEAST KENTUCKY

CITY           SKY/WX    TMP DP  RH WIND       PRES   REMARKS
JACKSON        CLEAR     70  67  90 CALM      30.12R
LONDON         CLEAR     67  64  90 CALM      30.13R
SOMERSET       CLEAR     66  66 100 CALM      30.12S
MIDDLESBORO    CLEAR     65  65 100 CALM      30.14R
MONTICELLO     SUNNY     68  67  96 NE6       30.13R
$$





USA.gov is the U.S. government's official web portal to all federal, state and local government web resources and services.